Terminal Aerodrome Forecast
Issued by NWS

Home | Current Version | Previous Version | Text Only | Print | Product List | Glossary On
Versions: 1 2 3 4 5 6 7 8 9 10 11 12 13 14 15 16 17 18 19 20 21 22 23 24 25 26 27 28 29 30 31 32 33 34 35 36 37 38 39 40 41 42 43 44
000
FTAK31 PAFA 190329 AAA
TAFAOR
TAF AMD
PAOR 190329Z 1903/1924 00000KT P6SM VCFG SCT003 SCT250
     FM190900 00000KT 2SM BR BKN003=

USA.gov is the U.S. government's official web portal to all federal, state and local government web resources and services.